Temperature
17 17 17 17 17 16 16 16 16 16 16 16 16 16 16 16 16 16 16 16 16 16 16 16 17 17 16 17 17 17 17 17 17 17 17 17 17 17 17 18 18 18 18
17 17 17 17 17 17 16 16 16 16 16 16 16 15 15 15 15 15 16 16 16 16 16 16 16 16 16 16 16 16 16 16 16 17 17 17 17 17 17 17 18 18 18
17 17 17 17 17 17 16 16 16 16 16 16 15 15 15 15 15 15 15 15 15 16 16 16 16 16 16 16 16 16 16 16 16 16 16 16 17 17 17 17 17 17 18
17 17 17 17 16 16 16 16 16 16 16 16 15 15 15 14 14 15 15 15 15 16 16 16 16 16 16 16 16 16 16 16 16 16 17 16 16 16 16 17 17 17 17
17 17 17 17 16 16 16 16 16 16 16 15 15 15 14 14 14 14 14 15 15 15 16 16 16 16 16 16 16 16 16 16 16 16 16 16 16 16 16 16 17 17 17
17 17 17 16 16 17 16 16 16 16 16 15 15 15 14 14 14 14 14 14 15 15 16 16 16 16 16 16 16 16 16 16 16 16 16 16 16 16 16 16 16 16 17
17 17 17 17 17 17 17 17 16 16 16 15 15 15 14 14 14 14 14 14 14 15 15 15 16 16 16 16 16 16 16 16 16 16 16 16 16 16 16 16 16 16 16
17 17 17 17 17 17 17 17 17 16 16 15 15 15 14 13 13 13 14 14 14 14 14 15 15 16 16 16 16 16 16 16 16 16 16 16 16 16 16 16 16 16 16
17 17 17 17 17 17 17 17 17 17 16 16 15 15 15 14 14 14 14 14 14 14 14 14 15 15 15 15 16 16 16 16 16 16 16 15 15 15 15 15 16 16 16
17 16 16 16 17 17 17 17 17 17 17 16 15 15 16 16 15 14 13 14 14 13 13 14 14 14 14 15 15 15 15 16 16 16 15 15 15 15 15 15 15 16 16
16 16 16 16 16 16 17 17 17 17 17 16 16 16 15 15 15 15 15 14 14 13 13 13 14 14 14 14 14 15 15 15 16 16 15 15 15 15 15 15 15 15 15
16 16 15 15 16 16 16 16 17 17 17 16 16 16 16 16 16 16 16 15 15 14 14 14 13 14 14 14 14 14 14 15 15 15 15 15 15 15 15 15 15 15 15
15 15 15 15 15 15 16 16 16 16 16 16 16 16 16 16 16 16 16 16 15 15 14 14 14 14 13 13 14 14 14 14 15 15 15 15 15 15 15 15 15 15 15
15 15 15 14 14 15 15 15 16 16 16 16 16 16 16 15 15 15 15 15 15 15 15 15 15 14 14 13 13 13 14 14 14 14 14 14 14 14 14 14 14 14 15
15 15 15 14 14 14 14 15 15 16 16 16 16 16 16 16 15 15 15 15 15 15 15 16 15 15 14 13 13 13 13 13 13 14 14 14 13 13 13 13 14 14 14
15 15 15 15 14 14 14 15 15 16 16 16 16 16 16 16 15 15 15 15 15 15 15 16 16 15 14 13 13 13 13 13 13 13 13 13 13 13 13 13 13 13 13
15 15 15 15 15 15 15 15 15 15 15 15 16 16 16 15 15 15 15 15 15 15 15 15 15 15 14 14 13 12 13 13 12 12 13 13 13 13 13 13 13 13 13
15 15 15 15 15 14 14 14 14 15 15 15 15 15 15 15 15 15 15 15 15 15 15 14 15 15 15 14 13 12 12 12 12 12 12 13 13 13 13 13 13 13 13
14 14 14 14 14 14 14 14 14 14 15 15 15 15 15 15 15 15 15 15 15 15 15 14 14 15 15 14 13 13 12 12 12 12 12 12 13 13 13 13 13 13 12
14 14 14 14 14 14 14 14 14 14 14 15 15 15 15 15 15 15 15 15 15 14 14 14 13 14 15 14 14 13 13 13 12 11 11 12 12 13 13 13 13 12 12
14 14 14 14 14 14 14 14 14 14 14 14 15 15 15 15 15 15 15 15 14 14 14 13 13 13 14 15 15 14 14 13 12 11 11 11 12 12 12 12 12 11 11
15 14 14 14 15 15 14 14 14 14 14 14 14 15 15 15 15 15 15 15 14 14 14 13 13 14 15 15 15 15 14 13 13 12 11 11 11 11 11 11 11 10 10
15 15 15 15 15 15 14 14 14 14 14 14 14 14 15 15 15 15 15 15 14 14 14 14 14 15 15 15 15 15 14 14 13 12 11 11 11 11 11 11 11 10 10
15 15 15 14 14 14 14 15 14 14 14 14 14 14 15 15 15 15 15 14 14 14 14 14 14 15 15 15 15 15 14 13 12 11 10 10 11 11 11 11 10 10 9
14 14 14 14 14 14 14 14 14 14 14 14 14 14 15 15 15 15 14 15 15 15 14 14 14 14 14 14 14 14 14 13 13 12 11 10 10 10 11 11 10 10 9
14 14 14 14 14 14 14 13 13 13 14 14 14 14 15 15 14 14 14 14 14 15 14 14 14 15 14 14 14 14 14 13 13 13 12 11 11 10 10 11 10 10 10
Wind_Speed
4 3 3 4 5 6 6 5 6 7 8 8 7 7 8 9 10 11 10 12 11 11 11 11 10 10 10 10 9 9 7 5 5 5 5 5 4 2 2 3 4 5 5
5 3 3 3 4 5 6 6 6 6 5 6 5 6 8 9 11 12 12 14 17 16 15 14 13 12 12 12 12 11 10 8 6 5 4 4 3 2 1 2 3 4 5
8 5 4 3 4 7 7 7 6 7 5 5 5 5 7 9 10 12 13 13 14 18 20 19 18 16 14 13 12 12 11 9 8 6 4 2 1 2 1 1 2 3 5
11 7 4 4 6 8 6 5 5 5 5 5 4 3 4 6 8 10 12 13 13 12 16 20 21 21 19 15 13 12 12 11 9 7 6 4 1 1 1 1 1 3 4
12 8 5 5 8 6 4 5 3 4 5 5 5 4 4 4 4 8 9 11 12 12 12 14 18 20 21 20 18 16 15 13 11 9 6 4 2 1 2 1 1 2 3
13 10 5 6 7 5 5 5 5 4 5 6 6 5 5 4 4 4 4 8 10 12 13 12 12 13 18 20 20 20 18 16 14 11 8 6 3 1 1 1 0 1 2
12 9 5 6 6 7 7 8 5 6 4 4 5 4 4 5 5 3 3 4 7 10 12 12 11 11 11 15 19 20 20 19 16 13 12 9 6 3 1 1 1 0 1
12 11 8 8 8 6 8 7 6 5 3 4 5 4 3 2 4 4 3 3 4 6 8 10 11 12 12 12 15 18 19 19 18 15 13 11 9 5 3 1 1 1 1
11 10 8 8 8 8 9 9 9 8 6 3 3 4 4 4 1 3 3 3 3 4 4 7 9 10 11 12 12 15 16 18 18 17 15 12 10 7 4 1 1 2 1
8 9 8 7 7 7 8 10 8 6 9 6 3 2 2 4 4 2 2 2 3 3 3 4 6 7 9 10 10 12 14 16 17 17 16 14 12 9 6 3 1 2 2
6 7 7 5 6 5 7 8 8 6 6 6 5 3 3 3 3 4 3 1 0 0 1 2 3 4 6 7 8 11 13 15 16 17 17 18 17 14 10 7 4 2 2
6 7 6 5 5 4 5 6 7 7 6 6 5 5 5 4 4 4 3 3 3 2 2 1 1 1 3 5 7 9 11 13 14 16 17 18 18 17 14 11 7 3 2
6 7 6 5 4 3 4 5 6 6 6 7 7 5 4 4 4 4 4 3 3 2 2 2 2 2 1 3 5 7 10 12 13 14 16 17 18 19 18 16 13 10 7
7 9 8 6 4 3 4 6 5 6 6 6 7 6 4 4 4 5 5 5 4 2 4 4 2 4 4 2 3 6 8 10 11 12 13 15 17 18 19 20 19 18 17
7 10 10 8 6 5 5 6 5 6 6 7 7 8 6 6 6 5 5 5 7 6 8 7 4 4 6 4 3 5 6 8 9 10 11 13 15 16 18 18 19 19 20
7 8 9 9 8 6 6 5 5 5 6 6 6 8 8 6 7 7 6 5 5 7 5 4 3 3 6 6 4 5 6 7 7 8 9 11 12 14 15 16 16 16 17
7 8 8 8 7 7 6 5 5 4 5 5 5 7 9 8 7 7 7 6 6 5 5 3 2 2 4 5 5 5 5 6 6 7 8 9 10 12 13 14 14 14 15
6 6 6 6 6 5 5 6 6 6 6 7 8 8 9 7 8 7 8 9 8 6 5 5 3 3 3 5 4 3 3 4 5 5 6 8 9 10 11 12 13 13 13
6 6 6 6 6 6 7 7 8 8 8 9 9 10 10 9 10 9 9 9 8 7 4 5 5 2 2 3 3 2 3 2 3 4 5 7 7 9 10 11 12 13 13
6 6 6 6 6 6 7 8 8 8 8 9 9 10 10 12 12 12 10 10 9 8 6 7 6 4 3 3 4 3 2 1 1 3 3 5 7 9 8 9 11 12 12
7 6 6 5 5 5 5 7 7 9 9 10 9 9 11 14 15 13 10 11 11 10 8 7 6 5 5 5 6 5 4 2 0 0 0 2 3 5 7 7 8 10 12
7 6 6 6 5 4 6 8 8 8 8 9 9 8 9 12 15 18 17 16 17 14 13 9 7 7 9 7 6 6 5 4 3 3 3 1 1 1 2 3 5 7 10
7 7 6 6 5 5 7 8 8 7 8 8 8 7 6 8 11 9 14 17 18 21 20 14 11 10 11 12 12 10 8 5 4 5 4 2 1 1 2 1 1 5 7
6 6 6 6 5 5 6 7 7 5 6 7 7 7 7 6 7 9 9 10 11 13 16 14 13 11 9 11 12 10 8 6 4 2 5 4 3 2 2 5 5 5 6
6 5 5 5 5 5 6 6 5 2 4 5 5 6 7 6 7 9 8 9 9 9 12 13 9 9 13 18 17 10 10 6 4 4 5 4 4 2 1 2 8 8 9
6 6 5 4 4 5 5 6 4 2 2 2 2 3 6 7 7 9 7 7 9 7 6 8 8 10 12 17 23 15 13 9 4 5 7 6 4 4 2 2 4 9 9
Wind_Direction
159 154 149 132 112 99 87 77 89 106 106 98 86 77 62 49 44 41 41 58 67 73 77 79 80 80 79 79 80 80 80 89 106 124 136 144 150 146 97 61 46 40 37
170 163 161 145 129 119 107 100 108 108 107 109 93 82 74 63 53 48 44 49 58 64 69 70 72 74 76 74 72 71 70 69 78 97 122 144 159 167 132 65 54 52 48
183 178 176 164 147 137 124 110 105 102 103 104 96 83 80 72 62 54 49 48 50 54 59 61 61 63 65 67 68 67 65 63 65 71 82 102 146 187 191 89 69 61 53
191 182 184 182 162 149 139 128 126 107 108 112 104 82 76 77 68 67 63 56 51 48 48 53 53 52 53 55 60 62 60 58 57 56 54 53 58 204 212 158 87 60 53
193 185 189 182 170 158 149 149 135 129 125 121 109 78 61 62 67 81 71 62 57 54 51 49 51 48 46 46 50 53 52 49 46 47 48 47 54 161 199 177 91 47 44
191 190 189 177 169 162 157 152 140 120 124 129 109 81 59 63 65 71 75 71 66 63 61 57 52 46 45 42 41 41 41 38 37 39 42 43 44 98 191 191 128 27 34
187 190 189 175 171 176 169 152 136 126 124 129 103 85 55 60 62 44 52 72 72 72 69 63 60 56 46 41 37 36 32 29 30 33 35 36 36 42 101 198 216 202 53
189 194 190 185 178 168 160 163 147 135 139 156 131 118 95 43 36 34 47 68 62 63 64 61 61 58 53 47 37 35 31 27 27 30 31 32 34 40 47 56 189 175 128
190 189 187 179 177 173 180 180 167 152 156 174 149 142 149 182 141 28 37 52 54 46 47 54 56 55 55 52 44 40 36 30 27 27 29 30 31 34 30 13 239 205 191
189 188 182 175 181 186 187 188 180 164 157 163 138 102 131 147 143 120 26 40 67 57 39 46 45 50 55 54 50 46 42 36 32 29 31 32 33 32 27 13 322 245 241
172 168 164 164 183 193 190 188 179 169 161 162 157 144 113 81 106 135 163 197 49 69 74 53 36 34 45 50 49 48 44 41 38 36 35 35 33 31 29 26 15 335 286
146 144 140 144 161 175 183 185 183 178 172 165 162 158 158 157 164 147 149 171 198 210 170 141 94 29 35 45 54 54 50 45 42 40 37 36 33 30 29 32 33 25 347
151 146 137 140 145 156 172 170 174 187 178 178 180 182 176 171 153 142 137 145 165 195 185 197 191 183 119 65 55 57 56 50 45 40 38 38 37 36 37 39 44 50 47
160 151 146 144 149 164 175 170 171 182 184 193 194 189 187 190 170 160 154 146 147 186 211 219 187 186 164 129 85 70 60 57 49 42 39 39 40 41 44 47 51 56 59
165 159 156 158 168 177 184 175 178 178 180 195 201 201 204 200 191 184 170 166 163 187 220 207 189 175 168 156 124 84 65 63 56 46 41 42 43 44 46 49 52 57 59
173 166 167 171 176 185 193 194 194 185 183 196 198 203 210 203 197 195 194 195 183 185 200 169 171 163 169 158 135 92 70 60 58 52 46 47 49 49 50 51 54 56 57
184 181 181 181 184 189 194 210 227 204 209 224 213 208 215 196 194 198 196 194 189 168 163 146 124 137 151 152 127 105 85 63 49 59 54 50 53 55 56 57 59 60 61
197 192 190 193 195 196 196 209 226 223 217 232 232 220 222 205 202 197 197 200 195 176 154 161 153 147 159 157 138 125 103 78 51 65 58 51 55 61 63 64 65 66 66
194 191 190 200 204 203 203 211 220 225 223 230 230 224 220 201 207 203 199 199 193 183 149 148 154 140 133 145 130 115 98 62 61 70 50 38 49 63 70 73 74 74 75
190 196 204 211 213 212 211 212 216 223 230 235 229 222 216 207 208 203 201 196 182 173 154 147 150 151 142 138 143 152 150 119 63 57 45 33 42 55 60 80 85 88 90
195 196 200 207 206 207 216 216 217 223 227 234 229 218 215 213 211 202 198 192 181 179 169 161 159 158 166 168 190 168 155 140 196 205 50 10 31 45 43 64 90 100 101
187 185 192 195 201 212 228 232 225 226 229 232 231 220 215 217 218 211 209 199 189 185 185 180 175 183 193 187 162 161 144 149 209 208 174 209 46 86 40 62 103 115 112
182 183 189 190 207 232 249 259 249 229 227 229 228 218 215 212 209 205 212 209 205 203 196 187 190 194 187 187 174 171 172 163 185 170 157 191 215 206 240 258 175 151 136
185 187 188 191 207 242 263 277 281 250 234 233 225 216 213 204 194 198 198 201 204 208 205 200 204 202 189 177 178 176 158 124 94 151 165 179 196 213 238 236 238 213 183
184 184 184 188 210 254 279 286 273 246 248 247 231 215 203 194 194 191 192 204 208 215 213 205 196 179 171 169 162 143 149 154 174 193 192 172 178 188 218 235 232 236 215
183 176 180 190 213 247 272 280 232 195 244 253 227 204 190 174 167 172 182 198 216 215 191 192 176 169 168 174 175 175 171 172 161 189 190 173 161 162 202 246 229 228 228
Height
1535 1537 1540 1542 1544 1546 1548 1549 1551 1551 1552 1552 1551 1551 1551 1551 1550 1550 1549 1549 1549 1549 1549 1549 1549 1549 1548 1548 1548 1548 1548 1549 1549 1549 1550 1551 1552 1553 1553 1553 1553 1552 1551
1535 1537 1540 1542 1544 1546 1548 1550 1551 1552 1552 1553 1553 1553 1553 1553 1552 1552 1552 1551 1551 1551 1551 1550 1550 1550 1549 1549 1549 1549 1549 1549 1549 1549 1550 1551 1551 1552 1553 1553 1553 1553 1552
1534 1537 1540 1542 1544 1546 1548 1550 1551 1552 1553 1554 1554 1554 1554 1555 1555 1554 1554 1553 1553 1553 1552 1552 1552 1551 1551 1550 1550 1550 1549 1549 1549 1549 1549 1550 1551 1552 1552 1553 1553 1553 1553
1533 1536 1539 1541 1544 1546 1548 1550 1551 1552 1554 1555 1555 1556 1556 1556 1556 1556 1556 1555 1555 1554 1554 1554 1553 1553 1553 1552 1551 1551 1550 1550 1549 1549 1549 1549 1550 1551 1552 1552 1553 1553 1553
1532 1534 1537 1540 1542 1544 1546 1549 1550 1552 1553 1555 1556 1557 1557 1557 1558 1557 1557 1557 1556 1556 1555 1555 1555 1554 1554 1553 1553 1552 1551 1550 1550 1549 1549 1549 1549 1550 1551 1552 1553 1553 1553
1529 1532 1535 1537 1540 1542 1544 1546 1549 1551 1553 1555 1556 1557 1558 1558 1559 1559 1558 1558 1558 1557 1556 1556 1556 1556 1555 1555 1554 1553 1552 1551 1551 1550 1549 1549 1549 1549 1550 1551 1552 1553 1553
1526 1529 1532 1534 1537 1539 1541 1544 1547 1549 1551 1553 1555 1557 1558 1559 1559 1559 1559 1559 1559 1559 1558 1557 1557 1557 1556 1556 1555 1554 1553 1552 1551 1551 1550 1549 1549 1549 1549 1550 1551 1552 1553
1522 1525 1528 1531 1534 1536 1538 1541 1544 1546 1549 1551 1553 1555 1557 1559 1559 1559 1559 1560 1560 1560 1559 1559 1558 1558 1557 1557 1556 1555 1554 1553 1552 1551 1550 1550 1549 1549 1549 1550 1551 1552 1552
1517 1520 1524 1527 1531 1533 1535 1538 1540 1543 1546 1549 1551 1553 1554 1555 1557 1558 1558 1559 1559 1560 1560 1559 1559 1559 1558 1558 1558 1557 1556 1554 1553 1552 1551 1551 1550 1550 1550 1550 1550 1551 1552
1512 1515 1519 1523 1526 1529 1532 1535 1537 1540 1543 1545 1548 1550 1552 1553 1554 1556 1557 1558 1559 1559 1559 1559 1559 1560 1559 1559 1559 1558 1557 1555 1554 1553 1552 1551 1551 1550 1550 1550 1550 1550 1551
1507 1510 1514 1517 1522 1525 1528 1531 1534 1537 1539 1542 1544 1547 1549 1551 1552 1554 1555 1556 1557 1558 1558 1559 1559 1559 1559 1559 1559 1558 1557 1556 1555 1553 1552 1552 1551 1550 1550 1549 1549 1549 1550
1502 1505 1509 1513 1517 1521 1524 1527 1530 1533 1536 1539 1542 1544 1546 1549 1550 1552 1553 1554 1555 1556 1557 1557 1558 1558 1558 1558 1558 1558 1557 1556 1554 1553 1552 1551 1550 1550 1549 1549 1548 1549 1549
1498 1501 1505 1509 1513 1517 1521 1524 1527 1530 1533 1536 1539 1541 1544 1546 1548 1550 1551 1552 1553 1554 1555 1556 1556 1557 1557 1557 1557 1557 1556 1555 1554 1553 1552 1551 1550 1550 1549 1549 1548 1548 1548
1495 1498 1501 1505 1510 1514 1518 1521 1524 1527 1530 1533 1536 1538 1540 1543 1545 1547 1549 1550 1551 1552 1553 1554 1554 1555 1555 1555 1556 1556 1556 1555 1554 1553 1552 1551 1550 1549 1549 1548 1548 1547 1547
1494 1496 1499 1503 1507 1511 1515 1519 1522 1525 1527 1530 1532 1535 1537 1539 1541 1543 1545 1547 1549 1549 1550 1551 1552 1553 1554 1554 1554 1555 1555 1554 1554 1553 1552 1551 1550 1549 1549 1548 1548 1548 1548
1494 1496 1499 1502 1506 1509 1513 1516 1519 1522 1524 1527 1529 1531 1532 1534 1536 1538 1540 1542 1544 1546 1547 1549 1550 1551 1552 1552 1553 1553 1554 1553 1553 1552 1551 1551 1550 1549 1549 1549 1549 1549 1549
1493 1496 1498 1501 1504 1507 1510 1513 1515 1518 1520 1522 1524 1526 1528 1530 1532 1534 1535 1537 1539 1541 1543 1545 1547 1548 1549 1550 1551 1551 1552 1552 1552 1551 1551 1550 1549 1549 1549 1549 1549 1550 1550
1493 1495 1497 1500 1502 1505 1507 1510 1512 1515 1517 1518 1520 1521 1523 1524 1526 1528 1530 1532 1534 1536 1539 1541 1543 1545 1546 1548 1548 1549 1550 1550 1550 1550 1550 1549 1549 1548 1548 1548 1548 1549 1549
1491 1493 1496 1498 1500 1502 1504 1506 1508 1510 1512 1514 1515 1516 1517 1518 1520 1522 1524 1526 1529 1531 1534 1536 1539 1541 1543 1545 1545 1546 1547 1547 1548 1548 1548 1548 1548 1547 1547 1547 1547 1547 1548
1488 1490 1493 1494 1496 1498 1500 1502 1503 1505 1507 1508 1510 1511 1512 1512 1514 1516 1518 1520 1523 1525 1528 1531 1534 1537 1539 1541 1542 1543 1544 1545 1546 1546 1546 1546 1546 1546 1546 1545 1546 1546 1546
1484 1487 1489 1491 1493 1494 1496 1498 1499 1501 1502 1503 1504 1505 1506 1507 1509 1510 1512 1514 1517 1519 1522 1525 1528 1531 1534 1536 1538 1539 1541 1542 1543 1543 1544 1544 1545 1545 1544 1544 1544 1545 1545
1481 1484 1486 1488 1489 1491 1492 1493 1494 1495 1496 1497 1498 1500 1501 1502 1504 1505 1507 1509 1511 1513 1515 1519 1522 1525 1528 1532 1534 1536 1537 1538 1539 1541 1541 1542 1542 1542 1542 1542 1543 1543 1544
1478 1481 1483 1485 1486 1487 1488 1489 1490 1490 1491 1492 1493 1494 1496 1497 1499 1501 1503 1504 1506 1508 1510 1513 1516 1519 1523 1528 1531 1533 1534 1535 1537 1539 1539 1539 1539 1540 1540 1541 1541 1542 1543
1475 1477 1479 1481 1482 1483 1484 1485 1485 1485 1486 1487 1488 1489 1491 1492 1494 1497 1499 1500 1502 1504 1505 1507 1511 1515 1520 1525 1527 1530 1532 1533 1534 1535 1536 1537 1537 1537 1538 1538 1539 1541 1542
1470 1473 1475 1477 1478 1479 1480 1480 1481 1481 1482 1482 1483 1484 1486 1488 1490 1492 1494 1496 1498 1500 1502 1504 1507 1511 1515 1519 1522 1525 1526 1528 1529 1531 1532 1533 1534 1534 1535 1536 1537 1538 1540
1465 1468 1471 1473 1475 1476 1476 1477 1477 1478 1478 1479 1479 1481 1482 1484 1486 1488 1490 1492 1494 1496 1498 1500 1502 1506 1509 1513 1516 1519 1522 1524 1525 1527 1528 1529 1530 1532 1532 1533 1534 1535 1537